[[{"header":{"parameterUnit":"m.s-1","parameterCategory":1,"la1":30.2991,"la2":30.254,"lo1":-89.0895,"lo2":-89.0444,"dy":0.0017,"dx":0.0017,"nx":28,"ny":28,"refTime":"2025-03-18T03:00:00:Z","depth":0,"parameterNumber":2,"parameterNumberName":"U-component_of_WINDS"},"data":[0,0,0,0,0,0,0,0,0,0,0,0,0,0,0,0,0,0,0,0,0,0,0,0,0,0,0,0,0,0,0,0,0,0,0,0,0,0,0,0,0,0,0,0,0,0,0,0,0,0,0,0,0,0,0,0,0,0,-1.4326,-1.4327,0,-1.4367,-1.4367,-1.4368,-1.4329,-1.4328,-1.4326,-1.4325,-1.4369,-1.4372,-1.4374,0,0,0,0,0,0,0,0,0,0,0,0,0,-1.4219,-1.4221,-1.4326,-1.4327,-1.4327,-1.4367,-1.4367,-1.4368,-1.433,-1.4328,-1.4326,-1.4324,-1.4368,-1.4371,-1.4374,0,0,0,0,0,0,0,0,0,0,0,0,0,-1.4263,-1.4222,-1.4326,-1.4313,-1.4312,-1.4367,-1.4367,-1.4368,-1.433,-1.4328,-1.4325,-1.4323,-1.4367,-1.4371,-1.4375,-1.4445,0,0,-1.4387,-1.4389,0,0,0,0,0,0,0,0,-1.4261,-1.4267,-1.4314,-1.4314,-1.4313,-1.4341,-1.4346,-1.4394,-1.4331,-1.4323,-1.4325,-1.4322,-1.4362,-1.4366,-1.4379,-1.4447,-1.4449,-1.4387,-1.439,-1.4391,-1.4392,0,0,0,0,0,0,0,-1.4258,-1.4265,-1.4342,-1.4315,-1.4314,-1.4306,-1.431,-1.4355,-1.4355,-1.4324,-1.4321,-1.4326,-1.4361,-1.4375,-1.4379,-1.445,-1.4387,-1.4391,-1.4393,-1.4395,-1.4579,-1.4582,0,0,0,0,0,0,-1.4256,-1.4263,-1.4341,-1.4344,-1.4281,-1.431,-1.4314,-1.4334,-1.4354,-1.4355,-1.4328,-1.4324,-1.4369,-1.4375,-1.4381,-1.4465,-1.4391,-1.4395,-1.4397,-1.4577,-1.458,-1.4583,0,0,0,0,0,0,-1.4254,-1.4263,-1.4339,-1.4303,-1.4312,-1.4314,-1.4337,-1.4336,-1.435,-1.4358,-1.4358,-1.4342,-1.4368,-1.4375,-1.443,-1.4466,-1.4397,-1.44,-1.4574,-1.4578,-1.4581,-1.4634,0,0,0,0,0,0,-1.4251,-1.4263,-1.4289,-1.4303,-1.4314,-1.4387,-1.4339,-1.4339,-1.4357,-1.4352,-1.4371,-1.4372,-1.4367,-1.4424,-1.4433,-1.447,-1.4403,-1.4571,-1.4576,-1.458,-1.4629,-1.4639,-1.4648,0,0,0,0,0,-1.4247,-1.4302,-1.429,-1.43,-1.4346,-1.4389,-1.4395,-1.4387,-1.436,-1.4386,-1.4391,-1.4371,-1.446,-1.443,-1.444,-1.4479,-1.4568,-1.4574,-1.458,-1.4625,-1.4637,-1.4647,0,0,0,0,0,0,-1.4292,-1.4304,-1.4291,-1.4352,-1.437,-1.4382,-1.4416,-1.44,-1.4426,-1.4421,-1.4411,-1.4415,-1.4473,-1.4481,-1.4447,-1.4548,-1.451,-1.4518,-1.4541,-1.4552,-1.4562,-1.4559,-1.4407,0,0,0,0,0,-1.4309,-1.4342,-1.4351,-1.4404,-1.4414,-1.4413,-1.4432,-1.4424,-1.4442,-1.445,-1.4458,-1.4478,-1.451,-1.4532,-1.4562,-1.463,-1.4634,-1.4661,-1.4671,-1.4679,-1.4686,-1.4723,-1.4736,-1.4602,-1.4602,-1.4601,0,0,-1.4345,-1.4355,-1.4377,-1.4414,-1.4426,-1.4461,-1.442,-1.4459,-1.4485,-1.4456,-1.4507,-1.4515,-1.4536,-1.4597,-1.4625,-1.4606,-1.4724,-1.4686,-1.4692,-1.4695,-1.473,-1.4743,-1.4754,-1.4605,-1.4605,-1.4604,0,0,-1.4428,-1.4439,-1.4485,-1.4498,-1.4518,-1.4517,-1.4529,-1.4544,-1.4547,-1.4599,-1.4578,-1.4609,-1.4665,-1.4681,-1.4697,-1.4786,-1.4769,-1.4797,-1.4846,-1.4882,-1.4893,-1.4902,-1.4935,-1.4947,-1.4804,-1.4804,-1.4804,0,-1.447,-1.4521,-1.4511,-1.4551,-1.4568,-1.4543,-1.459,-1.4604,-1.4633,-1.4646,-1.4624,-1.4694,-1.4706,-1.4771,-1.4793,-1.4806,-1.482,-1.4794,-1.4892,-1.4901,-1.491,-1.4941,-1.4953,-1.4807,-1.4807,-1.4806,-1.4806,0,-1.4573,-1.4609,-1.4644,-1.4671,-1.4692,-1.4736,-1.4733,-1.4756,-1.4746,-1.4749,-1.4802,-1.4816,-1.4848,-1.4863,-1.4855,-1.4928,-1.4916,-1.4893,-1.4855,-1.4926,-1.4955,-1.4967,-1.4812,-1.4811,-1.481,-1.4809,0,0,-1.4685,-1.4707,-1.472,-1.4732,-1.4752,-1.478,-1.4823,-1.4854,-1.4875,-1.4896,-1.4932,-1.498,-1.496,-1.4977,-1.497,-1.5002,-1.5074,-1.4976,-1.4977,-1.4994,-1.5156,-1.5173,-1.5187,-1.5062,-1.5064,-1.5066,-1.5154,0,-1.4769,-1.4843,-1.4835,-1.4905,-1.4939,-1.4915,-1.4953,-1.497,-1.4973,-1.5003,-1.5007,-1.5041,-1.5011,-1.5022,-1.5052,-1.5058,-1.5106,-1.5052,-1.5097,-1.5099,-1.5093,-1.5202,-1.5219,-1.5302,-1.5165,-1.5167,-1.5169,0,-1.4877,-1.4901,-1.4975,-1.499,-1.5004,-1.5038,-1.5066,-1.5094,-1.5114,-1.5114,-1.5134,-1.5122,-1.5166,-1.5126,-1.5188,-1.5151,-1.5169,-1.5175,-1.5178,-1.5182,-1.5138,-1.5209,-1.5328,-1.534,-1.5186,-1.5185,-1.5184,0,-1.4952,-1.5003,-1.5054,-1.5065,-1.5085,-1.5109,-1.5118,-1.5135,-1.5155,-1.518,-1.5193,-1.5223,-1.524,-1.5264,-1.5261,-1.5232,-1.5324,-1.5284,-1.5326,-1.5327,-1.5347,-1.5346,-1.547,-1.5358,-1.5358,-1.5358,-1.5357,0,-1.5047,-1.5093,-1.5088,-1.5119,-1.5171,-1.5162,-1.5213,-1.522,-1.5235,-1.5268,-1.525,-1.5281,-1.5275,-1.5307,-1.5305,-1.5356,-1.5364,-1.5366,-1.5365,-1.5368,-1.5368,-1.538,-1.5374,-1.5361,-1.536,-1.536,-1.5359,0,-1.514,-1.5138,-1.5192,-1.5206,-1.521,-1.5248,-1.526,-1.529,-1.5292,-1.5334,-1.5343,-1.5347,-1.5383,-1.5382,-1.5424,-1.5423,-1.5486,-1.5479,-1.548,-1.5478,-1.5521,-1.5517,-1.5658,-1.5676,-1.5552,-1.5553,-1.5554,0,-1.52,-1.5235,-1.5252,-1.5273,-1.5284,-1.5317,-1.5336,-1.5329,-1.5351,-1.5376,-1.5403,-1.5438,-1.5465,-1.5525,-1.5532,-1.5564,-1.5557,-1.5604,-1.5562,-1.5564,-1.5558,-1.5556,-1.556,-1.5613,-1.5614,-1.5615,-1.5616,0,-1.5308,-1.5306,-1.5334,-1.5363,-1.5387,-1.541,-1.543,-1.5448,-1.5443,-1.5469,-1.5505,-1.5527,-1.5569,-1.5604,-1.5635,-1.5646,-1.5631,-1.5629,-1.5641,-1.5644,-1.5644,-1.5645,-1.5503,-1.5626,-1.5625,-1.5625,-1.5624,-1.5624,-1.5387,-1.5417,-1.5434,-1.5467,-1.5482,-1.5502,-1.5531,-1.5536,-1.5566,-1.56,-1.5594,-1.5635,-1.5655,-1.5694,-1.5708,-1.5741,-1.5725,-1.5741,-1.5746,-1.575,-1.5755,-1.5638,-1.5747,-1.5746,-1.5746,-1.5746,-1.5746,0,-1.5494,-1.5504,-1.5534,-1.5564,-1.559,-1.5572,-1.5595,-1.5618,-1.5654,-1.5673,-1.57,-1.5743,-1.5777,-1.5787,-1.582,-1.5845,-1.5839,-1.5854,-1.5852,-1.5855,-1.5767,-1.5754,-1.5858,-1.5858,-1.5858,-1.5858,-1.5858,-1.5858,-1.5553,-1.5604,-1.5603,-1.5661,-1.5671,-1.5711,-1.5725,-1.5744,-1.5759,-1.5807,-1.5835,-1.5841,-1.5856,-1.589,-1.5921,-1.5923,-1.5937,-1.5955,-1.5954,-1.5872,-1.5861,-1.585,-1.5838,-1.5958,-1.5958,-1.6039,-1.604,-1.604]},{"header":{"parameterUnit":"m.s-1","parameterCategory":1,"la1":30.2991,"la2":30.254,"lo1":-89.0895,"lo2":-89.0444,"dy":0.0017,"dx":0.0017,"nx":28,"ny":28,"refTime":"2025-03-18T03:00:00:Z","depth":0,"parameterNumber":3,"parameterNumberName":"V-component_of_WINDS"},"data":[0,0,0,0,0,0,0,0,0,0,0,0,0,0,0,0,0,0,0,0,0,0,0,0,0,0,0,0,0,0,0,0,0,0,0,0,0,0,0,0,0,0,0,0,0,0,0,0,0,0,0,0,0,0,0,0,0,0,0.001,0.0009,0,-0.0091,-0.0092,-0.0093,-0.0121,-0.012,-0.012,-0.0119,-0.0223,-0.0226,-0.0229,0,0,0,0,0,0,0,0,0,0,0,0,0,0.0176,0.0173,0.001,0.0008,0.0007,-0.009,-0.0092,-0.0093,-0.0121,-0.012,-0.012,-0.0119,-0.0222,-0.0226,-0.023,0,0,0,0,0,0,0,0,0,0,0,0,0,0.0093,0.0172,0.001,-0.0018,-0.0022,-0.009,-0.0092,-0.0093,-0.0121,-0.012,-0.012,-0.0119,-0.0221,-0.0225,-0.023,-0.0278,0,0,-0.0245,-0.0247,0,0,0,0,0,0,0,0,0.0097,0.0087,-0.0013,-0.0017,-0.0021,-0.0092,-0.0071,-0.0155,-0.0121,-0.0084,-0.0119,-0.0118,-0.018,-0.0188,-0.0209,-0.0282,-0.0287,-0.0246,-0.0249,-0.0251,-0.0252,0,0,0,0,0,0,0,0.0103,0.0091,-0.003,-0.0014,-0.0019,-0.0026,-0.0037,-0.0087,-0.0135,-0.0087,-0.0089,-0.0101,-0.0182,-0.0204,-0.0212,-0.0288,-0.0246,-0.025,-0.0253,-0.0255,-0.0406,-0.0407,0,0,0,0,0,0,0.0114,0.0096,-0.0027,-0.0033,0.0042,-0.003,-0.0042,-0.007,-0.0135,-0.0144,-0.0101,-0.0101,-0.0196,-0.0206,-0.0216,-0.0275,-0.0251,-0.0255,-0.0258,-0.0404,-0.0406,-0.0407,0,0,0,0,0,0,0.0118,0.0103,-0.0023,0.0031,0.0014,-0.0034,-0.0065,-0.0073,-0.0095,-0.0146,-0.0155,-0.0115,-0.0196,-0.0209,-0.0262,-0.0279,-0.0258,-0.0262,-0.0403,-0.0405,-0.0406,-0.0395,0,0,0,0,0,0,0.0123,0.0105,0.0087,0.0031,0.0011,-0.0067,-0.0066,-0.0075,-0.0103,-0.0104,-0.0161,-0.017,-0.0196,-0.0254,-0.0267,-0.0286,-0.0266,-0.0402,-0.0404,-0.0406,-0.0394,-0.0396,-0.0398,0,0,0,0,0,0.0129,0.0093,0.0086,0.0071,-0.0012,-0.0068,-0.0079,-0.0109,-0.0104,-0.0123,-0.0156,-0.0168,-0.0275,-0.026,-0.0274,-0.0294,-0.0401,-0.0403,-0.0406,-0.0393,-0.0396,-0.0398,0,0,0,0,0,0,0.0148,0.0086,0.0076,0.0022,-0.0017,-0.0073,-0.0098,-0.011,-0.0152,-0.0152,-0.0187,-0.02,-0.0251,-0.0278,-0.0259,-0.0344,-0.0338,-0.0344,-0.0324,-0.0327,-0.0329,-0.0321,-0.027,0,0,0,0,0,0.0146,0.0107,0.0054,0.0011,-0.0008,-0.0049,-0.0075,-0.0094,-0.0137,-0.0154,-0.019,-0.0231,-0.0274,-0.0302,-0.0344,-0.0398,-0.0411,-0.0419,-0.0421,-0.0422,-0.0427,-0.0457,-0.0462,-0.0415,-0.0415,-0.0415,0,0,0.0142,0.0103,0.008,0.0014,-0.0019,-0.0059,-0.0063,-0.0106,-0.0137,-0.016,-0.0213,-0.0241,-0.0289,-0.0343,-0.0368,-0.0367,-0.0442,-0.0425,-0.0426,-0.043,-0.046,-0.0464,-0.0468,-0.0416,-0.0416,-0.0416,0,0,0.0112,0.0079,0.004,0.0007,-0.0043,-0.007,-0.0079,-0.0132,-0.0152,-0.0205,-0.0224,-0.026,-0.0334,-0.0367,-0.0394,-0.0435,-0.0448,-0.0448,-0.0458,-0.0487,-0.0491,-0.0494,-0.0509,-0.0514,-0.0452,-0.0452,-0.0452,0,0.0113,0.0051,0.0021,-0.0021,-0.0049,-0.0072,-0.0112,-0.0143,-0.0204,-0.0223,-0.022,-0.0313,-0.0347,-0.0409,-0.0418,-0.0439,-0.0451,-0.0442,-0.0488,-0.0492,-0.0495,-0.051,-0.0516,-0.0452,-0.0452,-0.0452,-0.0452,0,0.0054,0.0012,-0.0014,-0.0072,-0.0103,-0.0144,-0.0181,-0.0209,-0.0225,-0.0253,-0.0306,-0.0348,-0.0399,-0.0415,-0.0432,-0.0479,-0.0477,-0.0481,-0.0476,-0.0499,-0.0514,-0.0519,-0.0451,-0.0452,-0.0452,-0.0452,0,0,0.0034,-0.004,-0.0049,-0.0075,-0.0132,-0.0165,-0.0207,-0.0257,-0.028,-0.0321,-0.0357,-0.0418,-0.0422,-0.0452,-0.0473,-0.0499,-0.0529,-0.0499,-0.0501,-0.0504,-0.0584,-0.0581,-0.0588,-0.0537,-0.0538,-0.0539,-0.058,0,-0.0003,-0.0078,-0.0106,-0.0168,-0.0208,-0.023,-0.0266,-0.0305,-0.0331,-0.0369,-0.0398,-0.0441,-0.0443,-0.0461,-0.0487,-0.052,-0.0546,-0.0517,-0.0572,-0.0573,-0.056,-0.0595,-0.0593,-0.0629,-0.0586,-0.0587,-0.0588,0,-0.0056,-0.0097,-0.0162,-0.0213,-0.0231,-0.0263,-0.0311,-0.0347,-0.0391,-0.0408,-0.0442,-0.0461,-0.0506,-0.0498,-0.056,-0.054,-0.0564,-0.0583,-0.0585,-0.0592,-0.0582,-0.0603,-0.0642,-0.0647,-0.0597,-0.0596,-0.0596,0,-0.0064,-0.0136,-0.0185,-0.0207,-0.0267,-0.029,-0.0316,-0.0359,-0.0387,-0.0429,-0.0448,-0.0494,-0.052,-0.0555,-0.0586,-0.0578,-0.0646,-0.0641,-0.0662,-0.0661,-0.0676,-0.0675,-0.0719,-0.0691,-0.0691,-0.069,-0.069,0,-0.0102,-0.0142,-0.0189,-0.0219,-0.0264,-0.0296,-0.034,-0.0368,-0.0406,-0.0442,-0.0463,-0.0497,-0.0535,-0.0574,-0.0598,-0.0646,-0.0658,-0.0673,-0.068,-0.0672,-0.067,-0.0689,-0.0687,-0.0692,-0.0692,-0.0691,-0.0691,0,-0.012,-0.0153,-0.0208,-0.0261,-0.0275,-0.0305,-0.0351,-0.0381,-0.0408,-0.0453,-0.0466,-0.0509,-0.0555,-0.0589,-0.0649,-0.0666,-0.0717,-0.0723,-0.0702,-0.0705,-0.0725,-0.0723,-0.0784,-0.0793,-0.0757,-0.0758,-0.0758,0,-0.0142,-0.0173,-0.0229,-0.0254,-0.028,-0.0321,-0.035,-0.0382,-0.0411,-0.0464,-0.0487,-0.0535,-0.0575,-0.0648,-0.0685,-0.0731,-0.0738,-0.0756,-0.0745,-0.0737,-0.0739,-0.0737,-0.0741,-0.0758,-0.0758,-0.0758,-0.0759,0,-0.0178,-0.0193,-0.0233,-0.028,-0.0313,-0.0351,-0.0389,-0.0409,-0.0448,-0.048,-0.0527,-0.0558,-0.0619,-0.0666,-0.0716,-0.0743,-0.0758,-0.0761,-0.0769,-0.0762,-0.0748,-0.0756,-0.0707,-0.076,-0.076,-0.076,-0.076,-0.076,-0.0199,-0.0228,-0.0271,-0.0316,-0.0348,-0.0383,-0.0414,-0.0444,-0.0484,-0.0536,-0.0553,-0.0602,-0.0646,-0.0714,-0.0742,-0.0781,-0.078,-0.0791,-0.0794,-0.0796,-0.0796,-0.0742,-0.079,-0.079,-0.079,-0.079,-0.079,0,-0.0237,-0.0266,-0.0306,-0.0359,-0.0394,-0.0403,-0.0446,-0.0475,-0.0518,-0.0557,-0.0595,-0.065,-0.0695,-0.0735,-0.0783,-0.0807,-0.0815,-0.0818,-0.0817,-0.0823,-0.0793,-0.0782,-0.0811,-0.0811,-0.0811,-0.0811,-0.0811,-0.0811,-0.0261,-0.0309,-0.0329,-0.0394,-0.0423,-0.0471,-0.0495,-0.0527,-0.0559,-0.0618,-0.0656,-0.0682,-0.0722,-0.0772,-0.0815,-0.0825,-0.0842,-0.0844,-0.0856,-0.0828,-0.0825,-0.0823,-0.0813,-0.0847,-0.0847,-0.0883,-0.0884,-0.0884]}]]